STARLINK-30516, 57984

Orbit data source: Space-Track

STARLINK-30516, 57984 is a payload satellite owned by SpaceX/Seattle (US) in LEO that was launched on Sat, 30 Sep 2023 UTC via an FALCON 9 launch vehicle from the Air Force Eastern Test Range (AFETR). Payload-class satellites include a variety of spacecraft equipped with specific instruments for various scientific and technological missions. These include communications satellites like Starlink; space stations such as the ISS; scientific satellites like the Hubble; Earth observation satellites from companies like Planet Labs, Umbra, and HawkEye 360; GPS; miniature CubeSats for education and research; and military/defense satellites.

Loading next visibility...
Identifier
57984, 2023-151W
Orbit
LEO
Country
Flag of USUS
Related business
Manufacturer
SpaceX/Seattle
Mission
Operational Commercial Communications
Bus & Motor
STARLINK V2M, Unknown motor
Mass
730 kg wet, ~700 kg dry
Launch date (UTC)
2023-09-30 (3 years ago)
Launch vehicle
FALCON 9
Launch site
Air Force Eastern Test Range (AFETR)
Object type
Payload
Rocket body
Debris
Shape & HBR
Box + 2 Pan, 17.7 m
Radar Cross Section
33.884 m², Large (>1 m²)

Expand to show TLE details & history
Last TLE update: 1 day ago

TLE from 1 day ago
0 STARLINK-30516
1 57984U 23151W   26236.40595025  .00000433  00000-0  25245-4 0  9996
2 57984  43.0036 126.9001 0001611 260.8914  99.1756 15.27584263161209
Epoch: 2026-08-24T09:44Z
TLE epoch observation values (Epoch: 2026-08-24T09:44:34.101Z)
Latitude
0.00001°
Longitude
8.06991°
Altitude
482.989 km
Speed
7.626 km/s
True Right ascension
08h 27m 36s
True Declination
0° 00' 00"
Sunlit
Object was in daylight at epoch
Visualization orbit readout
Latitude
Unknown
Longitude
Unknown
Altitude
Unknown
Speed
Unknown
Apparent Right ascension
Unknown
Apparent Declination
Unknown
Sunlit
N/A
Visualization observer readout
Local Sidereal Time
00:48:55
Azimuth
Unknown
Elevation
Unknown
Doppler factor
Unknown
Orbital elements
Apogee altitude
486.087 km
Perigee altitude
483.875 km
Semi-major axis
6,863.118 km
Eccentricity
0.00016
Inclination
43.0036°
RAAN
126.9001°
Arg. of periapsis
260.8914°
True anomaly
99.19382°
Mean anomaly
99.1756°
Eccentric anomaly
99.18471°
Mean motion
3.81734 °/min
Orbital period
94.31 mins
BSTAR
0.000025245
Loading maneuver chart data...
Computing Atmospheric mass density...
Loading historical data...
Loading historical data...
Loading historical data...
Loading historical data...
Loading historical data...
Loading historical data...
Loading historical data...

Documentation

Showing up to 5 results
|